CW8198 Weather Reports


time (UTC)temp
C
wind
direction
speed
KPH
gust
KPH
rain 1hr
cm
rain 24hr
cm
rain mn
cm
humidity
%
barometer
mb
20260901074824 23 238 1.6 4.8 0.00 0.00 0.00 90 1013.5
20260901074325 23 247 3.2 4.8 0.00 0.00 0.00 90 1013.6
20260901073824 23 232 1.6 4.8 0.00 0.00 0.00 90 1013.6
20260901073324 23 119 1.6 4.8 0.00 0.00 0.00 90 1013.6
20260901072823 23 93 1.6 4.8 0.00 0.00 0.00 90 1013.7
20260901072323 23 51 0.0 4.8 0.00 0.00 0.00 90 1013.8
20260901071822 23 257 3.2 4.8 0.00 0.00 0.00 90 1013.6
20260901071322 23 9 1.6 4.8 0.00 0.00 0.00 90 1013.7
20260901070823 23 51 1.6 9.7 0.00 0.00 0.00 90 1013.7
20260901070322 23 41 3.2 12.9 0.00 0.00 0.00 90 1013.8
20260901065822 23 269 3.2 12.9 0.00 0.00 0.00 90 1013.9
20260901065324 23 309 1.6 4.8 0.00 0.00 0.00 90 1013.6
20260901064822 22 61 3.2 4.8 0.00 0.00 0.00 90 1013.8
20260901063822 22 19 1.6 3.2 0.00 0.00 0.00 90 1013.7
20260901063322 23 9 0.0 3.2 0.00 0.00 0.00 90 1013.8
20260901062822 23 205 0.0 1.6 0.00 0.00 0.00 90 1013.8
20260901062323 23 238 0.0 1.6 0.00 0.00 0.00 90 1013.9
20260901061311 23 221 1.6 1.6 0.00 0.00 0.00 90 1013.9
20260901060811 23 178 0.0 1.6 0.00 0.00 0.00 90 1013.9
20260901060311 23 265 0.0 1.6 0.00 0.00 0.00 90 1013.9
20260901055811 23 265 0.0 1.6 0.00 0.00 0.00 89 1014.0
20260901055311 23 9 1.6 1.6 0.00 0.00 0.00 90 1013.9
20260901054811 23 265 0.0 1.6 0.00 0.00 0.00 90 1014.1
20260901054311 23 265 0.0 1.6 0.00 0.00 0.00 89 1014.0
20260901053810 23 309 0.0 1.6 0.00 0.00 0.00 89 1014.0
20260901053310 23 309 0.0 1.6 0.00 0.00 0.00 89 1014.1
20260901052810 23 9 0.0 1.6 0.00 0.00 0.00 89 1014.1
20260901052307 23 9 1.6 1.6 0.00 0.00 0.00 89 1014.1
20260901051806 23 309 0.0 1.6 0.00 0.00 0.00 89 1014.0
20260901051300 23 93 0.0 1.6 0.00 0.00 0.00 89 1014.0
20260901050754 23 291 0.0 1.6 0.00 0.00 0.00 89 1013.9
20260901050248 23 309 0.0 1.6 0.00 0.00 0.00 89 1013.9
20260901045749 23 51 0.0 1.6 0.00 0.00 0.00 89 1013.9
20260901045243 23 334 1.6 1.6 0.00 0.00 0.00 89 1014.0
20260901044737 23 26 0.0 1.6 0.00 0.00 0.00 89 1013.9
20260901044238 23 309 0.0 1.6 0.00 0.00 0.00 89 1014.0
20260901043738 24 221 0.0 1.6 0.00 0.00 0.00 89 1013.9
20260901043238 24 309 0.0 1.6 0.00 0.00 0.00 89 1013.8
20260901042733 24 178 0.0 1.6 0.00 0.00 0.00 89 1014.0
20260901042232 24 309 0.0 1.6 0.00 0.00 0.00 89 1013.9
20260901041732 24 178 1.6 1.6 0.00 0.00 0.00 89 1014.0
20260901040722 24 178 0.0 3.2 0.00 0.00 0.00 88 1014.0
20260901040222 24 165 1.6 3.2 0.00 0.00 0.00 88 1014.0
20260901035222 24 221 1.6 3.2 0.00 0.00 0.00 88 1013.7
20260901034721 24 325 0.0 1.6 0.00 0.00 0.00 88 1013.7
20260901033716 24 26 1.6 3.2 0.00 0.00 0.00 88 1013.6
20260901033215 25 9 1.6 3.2 0.00 0.00 0.00 88 1013.7
20260901032716 25 325 0.0 3.2 0.00 0.00 0.00 88 1013.7
20260901032215 25 265 0.0 3.2 0.00 0.00 0.00 88 1013.5
20260901031715 25 119 1.6 3.2 0.00 0.00 0.00 87 1013.5
20260901031214 25 9 0.0 3.2 0.00 0.00 0.00 87 1013.5
20260901030714 25 137 1.6 3.2 0.00 0.00 0.00 87 1013.5
20260901025716 25 309 0.0 1.6 0.00 0.00 0.00 87 1013.5
20260901025215 25 265 0.0 1.6 0.00 0.00 0.00 87 1013.4
20260901024714 25 265 0.0 1.6 0.00 0.00 0.00 87 1013.4
20260901024214 25 221 0.0 1.6 0.00 0.00 0.00 86 1013.3
20260901023715 25 221 0.0 1.6 0.00 0.00 0.00 86 1013.3
20260901023213 25 238 0.0 1.6 0.00 0.00 0.00 86 1013.3
20260901022713 25 193 0.0 1.6 0.00 0.00 0.00 86 1013.1
20260901022214 26 309 0.0 1.6 0.00 0.00 0.00 86 1013.1
20260901020712 26 137 0.0 3.2 0.00 0.00 0.00 85 1012.9
20260901015712 26 205 1.6 3.2 0.00 0.00 0.00 84 1012.7
20260901015212 26 212 3.2 3.2 0.00 0.00 0.00 84 1012.7
20260901014211 26 265 0.0 1.6 0.00 0.00 0.00 82 1012.6
20260901013711 26 221 0.0 1.6 0.00 0.00 0.00 82 1012.6
20260901013206 27 9 0.0 1.6 0.00 0.00 0.00 81 1012.6
20260901012707 27 9 0.0 1.6 0.00 0.00 0.00 81 1012.6
20260901011651 27 291 0.0 1.6 0.00 0.00 0.00 81 1012.6
20260901010650 28 212 1.6 3.2 0.00 0.00 0.00 80 1012.7
20260901005649 28 41 0.0 1.6 0.00 0.00 0.00 80 1012.7
20260901005149 28 221 0.0 3.2 0.00 0.00 0.00 79 1012.7
20260901004649 28 41 1.6 3.2 0.00 0.00 0.00 78 1012.6
20260901004149 28 34 0.0 3.2 0.00 0.00 0.00 78 1012.7
20260901003148 28 26 0.0 3.2 0.00 0.00 0.00 76 1012.6
20260901002647 29 51 0.0 1.6 0.00 0.00 0.00 76 1012.9
20260901002149 29 119 1.6 3.2 0.00 0.00 0.00 75 1012.8
20260901001642 29 111 1.6 3.2 0.00 0.00 0.00 74 1012.7
20260901001142 30 41 0.0 3.2 0.00 0.00 0.00 74 1012.7
20260901000142 30 93 1.6 3.2 0.00 0.00 0.00 72 1012.8
20260831235642 30 137 1.6 3.2 0.00 0.00 0.00 71 1012.7
20260831235141 30 178 1.6 3.2 0.00 0.00 0.00 71 1012.8
20260831234641 30 178 0.0 3.2 0.00 0.00 0.00 68 1012.7
20260831234141 30 9 0.0 4.8 0.00 0.00 0.00 67 1012.7
20260831233642 30 51 1.6 4.8 0.00 0.00 0.00 69 1012.7
20260831233140 30 282 1.6 3.2 0.00 0.00 0.00 74 1012.8
20260831232640 30 250 0.0 3.2 0.00 0.00 0.00 72 1012.9
20260831232140 30 221 0.0 3.2 0.00 0.00 0.00 73 1012.8
20260831231639 30 250 1.6 4.8 0.00 0.00 0.00 73 1012.7
20260831231140 30 196 1.6 4.8 0.00 0.00 0.00 73 1012.8
20260831230639 30 26 0.0 4.8 0.00 0.00 0.00 72 1012.7
20260831230139 30 247 1.6 4.8 0.00 0.00 0.00 70 1012.8
20260831225138 31 265 1.6 6.4 0.00 0.00 0.00 70 1012.7
20260831224638 31 265 0.0 4.8 0.00 0.00 0.00 69 1012.8
20260831223638 31 265 1.6 4.8 0.00 0.00 0.00 67 1012.7
20260831222638 31 323 3.2 8.0 0.00 0.00 0.00 66 1012.8
20260831222138 31 309 1.6 8.0 0.00 0.00 0.00 66 1012.9
20260831221637 31 334 1.6 8.0 0.00 0.00 0.00 66 1013.0
20260831221137 31 41 1.6 8.0 0.00 0.00 0.00 66 1012.9
20260831220633 31 20 3.2 6.4 0.00 0.00 0.00 66 1012.9
20260831215634 31 250 3.2 4.8 0.00 0.00 0.00 66 1012.9
20260831215132 31 309 1.6 9.7 0.00 0.00 0.00 65 1013.0
20260831214631 31 250 3.2 11.3 0.00 0.00 0.00 66 1013.0
20260831214131 31 265 1.6 11.3 0.00 0.00 0.00 64 1013.0
20260831213631 31 275 3.2 9.7 0.00 0.00 0.00 64 1013.0
20260831213132 31 265 4.8 12.9 0.00 0.00 0.00 63 1013.3
20260831212631 32 261 4.8 14.5 0.00 0.00 0.00 61 1013.1
20260831212131 32 217 6.4 14.5 0.00 0.00 0.00 57 1013.1
20260831211630 33 241 8.0 12.9 0.00 0.00 0.00 58 1013.1
20260831211131 33 245 8.0 16.1 0.00 0.00 0.00 61 1013.1
20260831210131 33 238 6.4 14.5 0.00 0.00 0.00 60 1013.1
20260831205630 33 236 8.0 14.5 0.00 0.00 0.00 61 1013.3
20260831205130 33 257 4.8 17.7 0.00 0.00 0.00 65 1013.3
20260831204630 33 338 6.4 17.7 0.00 0.00 0.00 61 1013.3
20260831204129 33 9 3.2 14.5 0.00 0.00 0.00 65 1013.4
20260831203630 33 265 6.4 16.1 0.00 0.00 0.00 62 1013.4
20260831202629 32 265 6.4 12.9 0.00 0.00 0.00 63 1013.6
20260831202129 32 225 4.8 14.5 0.00 0.00 0.00 61 1013.5
20260831201629 32 295 6.4 16.1 0.00 0.00 0.00 58 1013.6
20260831201130 32 261 6.4 16.1 0.00 0.00 0.00 59 1013.5
20260831200628 32 269 6.4 12.9 0.00 0.00 0.00 65 1013.6
20260831200129 32 257 8.0 12.9 0.00 0.00 0.00 63 1013.6
20260831195128 33 227 9.7 17.7 0.00 0.00 0.00 57 1013.6
20260831194627 33 44 6.4 12.9 0.00 0.00 0.00 61 1013.5
20260831194127 33 250 3.2 14.5 0.00 0.00 0.00 61 1013.6
20260831193627 33 241 8.0 14.5 0.00 0.00 0.00 65 1013.5
20260831193126 32 234 4.8 12.9 0.00 0.00 0.00 64 1013.6
20260831192627 32 9 1.6 14.5 0.00 0.00 0.00 61 1013.5
20260831192126 33 209 4.8 14.5 0.00 0.00 0.00 60 1013.4
20260831191626 33 300 3.2 9.7 0.00 0.00 0.00 65 1013.5
20260831191128 32 338 3.2 11.3 0.00 0.00 0.00 65 1013.5
20260831190626 32 284 4.8 11.3 0.00 0.00 0.00 65 1013.5
20260831190126 32 228 6.4 11.3 0.00 0.00 0.00 66 1013.5
20260831185626 32 342 3.2 11.3 0.00 0.00 0.00 67 1013.5
20260831185125 31 282 3.2 11.3 0.00 0.00 0.00 70 1013.6
20260831184625 31 340 3.2 11.3 0.00 0.00 0.00 69 1013.5
20260831184125 31 221 3.2 12.9 0.00 0.00 0.00 65 1013.5
20260831183626 31 208 3.2 12.9 0.00 0.00 0.00 67 1013.6
20260831183121 31 254 4.8 12.9 0.00 0.00 0.00 68 1013.7
20260831182120 31 93 3.2 9.7 0.00 0.00 0.00 68 1013.6
20260831181619 30 340 3.2 6.4 0.00 0.00 0.00 68 1013.5
20260831181122 30 250 3.2 11.3 0.00 0.00 0.00 71 1013.6
20260831180620 30 265 3.2 11.3 0.00 0.00 0.00 73 1013.6
20260831180119 29 13 3.2 9.7 0.00 0.00 0.00 74 1013.6
20260831175619 29 273 3.2 11.3 0.00 0.00 0.00 71 1013.7
20260831174619 29 252 4.8 11.3 0.00 0.00 0.00 71 1013.8
20260831174118 29 255 4.8 11.3 0.00 0.00 0.00 71 1013.8
20260831173619 29 282 4.8 11.3 0.00 0.00 0.00 73 1013.6
20260831173118 29 257 4.8 12.9 0.00 0.00 0.00 72 1013.6
20260831172617 29 261 6.4 12.9 0.00 0.00 0.00 72 1013.7
20260831172117 29 221 3.2 11.3 0.00 0.00 0.00 72 1013.6
20260831171618 29 265 3.2 9.7 0.00 0.00 0.00 74 1013.6
20260831171119 29 259 3.2 9.7 0.00 0.00 0.00 69 1013.7
20260831170617 29 305 3.2 9.7 0.00 0.00 0.00 72 1013.6
20260831165617 28 303 3.2 12.9 0.00 0.00 0.00 75 1013.5
20260831165116 28 15 4.8 12.9 0.00 0.00 0.00 74 1013.4
20260831164616 28 328 6.4 16.1 0.00 0.00 0.00 75 1013.4
20260831164116 28 25 3.2 16.1 0.00 0.00 0.00 77 1013.4
20260831163616 27 9 3.2 11.3 0.00 0.00 0.00 76 1013.5
20260831163116 27 309 3.2 11.3 0.00 0.00 0.00 77 1013.6
20260831162615 27 262 4.8 11.3 0.00 0.00 0.00 75 1013.6
20260831162116 27 309 3.2 11.3 0.00 0.00 0.00 76 1013.6
20260831161615 27 309 3.2 9.7 0.00 0.00 0.00 76 1013.5
20260831161117 27 9 3.2 9.7 0.00 0.00 0.00 76 1013.4
20260831160611 27 229 3.2 16.1 0.00 0.00 0.00 75 1012.9
20260831160109 28 291 3.2 16.1 0.00 0.00 0.00 74 1012.8
20260831155609 28 257 3.2 14.5 0.00 0.00 0.00 75 1012.7
20260831154609 28 272 4.8 14.5 0.00 0.00 0.00 77 1012.7
20260831154109 27 280 3.2 9.7 0.00 0.00 0.00 78 1012.6
20260831153609 27 265 3.2 9.7 0.00 0.00 0.00 79 1012.5
20260831153108 27 265 1.6 8.0 0.00 0.00 0.00 82 1012.6
20260831152609 26 281 3.2 8.0 0.00 0.00 0.00 84 1012.7
20260831152108 26 312 1.6 6.4 0.00 0.00 0.00 85 1012.7
20260831151108 25 9 4.8 8.0 0.00 0.00 0.00 86 1012.5
20260831150608 25 23 4.8 8.0 0.00 0.00 0.00 87 1012.5
20260831150108 24 341 3.2 8.0 0.00 0.00 0.00 87 1012.6
20260831145107 24 251 3.2 6.4 0.00 0.00 0.00 88 1012.7
20260831144103 23 19 3.2 6.4 0.00 0.00 0.00 89 1012.4
20260831143602 23 9 3.2 4.8 0.00 0.00 0.00 88 1012.1
20260831143103 23 51 3.2 4.8 0.00 0.00 0.00 89 1011.9
20260831142102 23 286 4.8 14.5 0.00 0.00 0.00 89 1012.3
20260831141602 23 217 9.7 14.5 0.00 0.00 0.00 89 1012.6
20260831141103 23 284 3.2 14.5 0.00 0.00 0.00 90 1011.9
20260831135602 22 165 8.0 29.0 0.00 0.00 0.00 90 1010.8
20260831135102 22 347 14.5 32.2 0.00 0.00 0.00 90 1009.8
20260831134602 22 25 14.5 32.2 0.00 0.00 0.00 90 1010.0
20260831134100 22 342 11.3 22.5 0.00 0.00 0.00 90 1011.9
20260831133101 22 282 6.4 17.7 0.00 0.00 0.00 90 1012.6
20260831132559 22 316 6.4 16.1 0.00 0.00 0.00 90 1012.2
20260831132100 23 311 4.8 11.3 0.00 0.00 0.00 90 1012.5
20260831131600 23 259 8.0 11.3 0.00 0.00 0.00 90 1013.4
20260831131100 23 291 0.0 3.2 0.00 0.00 0.00 90 1012.7
20260831130558 22 221 0.0 3.2 0.00 0.00 0.00 90 1012.5
20260831130059 22 51 1.6 4.8 0.00 0.00 0.00 90 1012.5
20260831125558 22 325 1.6 4.8 0.00 0.00 0.00 90 1012.7
20260831125058 22 115 1.6 4.8 0.00 0.00 0.00 90 1012.5
20260831122547 22 9 0.0 3.2 0.00 0.00 0.00 90 1011.8
20260831122046 22 265 1.6 3.2 0.00 0.00 0.00 90 1011.7
20260831121546 22 265 0.0 3.2 0.00 0.00 0.00 90 1011.7
20260831121047 22 250 1.6 3.2 0.00 0.00 0.00 90 1011.6
20260831120547 22 221 0.0 3.2 0.00 0.00 0.00 91 1011.3
20260831120046 22 34 0.0 1.6 0.00 0.00 0.00 91 1011.3
20260831115546 22 9 0.0 1.6 0.00 0.00 0.00 90 1011.1
20260831115046 22 9 0.0 1.6 0.00 0.00 0.00 90 1011.1
20260831114045 22 325 0.0 1.6 0.00 0.00 0.00 90 1010.9
20260831113044 22 51 3.2 3.2 0.00 0.00 0.00 90 1010.7
20260831112545 22 51 0.0 3.2 0.00 0.00 0.00 90 1010.6
20260831112045 22 26 0.0 3.2 0.00 0.00 0.00 90 1010.7
20260831111544 22 298 0.0 3.2 0.00 0.00 0.00 90 1010.5
20260831111044 22 137 1.6 4.8 0.00 0.00 0.00 90 1010.4
20260831110543 22 126 1.6 6.4 0.00 0.00 0.00 90 1010.3
20260831105545 22 76 1.6 3.2 0.00 0.00 0.00 90 1010.4
20260831104543 22 153 0.0 1.6 0.00 0.00 0.00 90 1010.4
20260831103543 22 221 0.0 3.2 0.00 0.00 0.00 90 1010.3
20260831103043 22 165 1.6 3.2 0.00 0.00 0.00 90 1010.4
20260831102542 22 298 0.0 1.6 0.00 0.00 0.00 90 1010.2
20260831102043 22 265 0.0 3.2 0.00 0.00 0.00 90 1010.2
20260831101041 22 178 0.0 4.8 0.00 0.00 0.00 90 1010.3
20260831100036 22 103 0.0 3.2 0.00 0.00 0.00 90 1009.9
20260831095536 22 93 0.0 3.2 0.00 0.00 0.00 90 1010.0
20260831095035 22 41 0.0 3.2 0.00 0.00 0.00 90 1010.0
20260831094535 22 221 0.0 3.2 0.00 0.00 0.00 90 1010.0
20260831094035 22 51 0.0 3.2 0.00 0.00 0.00 90 1010.0
20260831093535 22 9 1.6 6.4 0.00 0.00 0.00 90 1009.9
20260831093030 22 9 1.6 6.4 0.00 0.00 0.00 90 1009.8
20260831092529 22 148 3.2 6.4 0.00 0.00 0.00 90 1009.9
20260831092031 22 309 0.0 1.6 0.00 0.00 0.00 90 1009.8
20260831091514 22 334 0.0 3.2 0.00 0.00 0.00 90 1009.7
20260831091014 22 9 0.0 3.2 0.00 0.00 0.00 90 1009.7
20260831090513 22 108 1.6 4.8 0.00 0.00 0.00 90 1009.7
20260831085513 22 9 0.0 3.2 0.00 0.00 0.00 90 1009.8
20260831085013 22 51 0.0 3.2 0.00 0.00 0.00 90 1009.8
20260831084513 22 325 0.0 1.6 0.00 0.00 0.00 90 1009.8
20260831084013 22 309 0.0 4.8 0.00 0.00 0.00 90 1009.6
20260831083512 22 137 1.6 4.8 0.00 0.00 0.00 90 1009.5
20260831083013 22 221 1.6 4.8 0.00 0.00 0.00 90 1009.5
20260831082512 22 282 1.6 4.8 0.00 0.00 0.00 90 1009.2
20260831082013 22 16 3.2 3.2 0.00 0.00 0.00 90 1009.3
20260831081512 22 9 0.0 3.2 0.00 0.00 0.00 89 1009.3
20260831081012 22 137 0.0 3.2 0.00 0.00 0.00 90 1009.1
20260831080512 22 119 1.6 3.2 0.00 0.00 0.00 90 1009.3
20260831080012 22 265 1.6 1.6 0.00 0.00 0.00 89 1009.4
20260831075511 22 265 0.0 1.6 0.00 0.00 0.00 89 1009.3